{"data":{"norad_id":54143,"epoch":"2026-05-25T04:32:03.227136Z","epoch_age_seconds":62299,"freshness":"FRESH","line1":"1 54143U 22138AG  26145.18892624 -.00002041  00000+0 -51298-2 0  9996","line2":"2 54143  87.9159 309.5482 0001666  87.8130 272.3193 13.19733805173799","mean_motion":13.19733805,"eccentricity":0.0001666,"inclination_deg":87.9159,"raan_deg":309.5482,"arg_perigee_deg":87.813,"mean_anomaly_deg":272.3193,"bstar":-0.0051298,"rev_number":17379,"period_min":109.11291311508,"perigee_km":1184.4767673149,"apogee_km":1186.9970501013,"semimajor_km":7563.8739087081,"source":"CELESTRAK","updated_at":"2026-05-25T13:38:22.591192Z"}}